Weather in Ferma

Russia / Perm Krai     57°53′48″N   56°18′02″E
temp.,
°C
wind,
m/s
gust,
m/s
humid.,
%
clouds,
%
prec.,
mm/h
press.,
hPa
HPBL,
m
3 march, wed
wed323:00−8ssw3119398 0.8 995354
02:00−6sw399698 0.8 994335
05:00−7sw269699 0.9 994165
08:00−8wsw369881 0.0 994132
11:00−6w359589 0.1 996278
14:00−3wsw359397 0.1 996445
17:00−2wsw369199 0.3 997616
20:00−4wsw2398100 0.4 99672
4 march, thu
thu423:00−6nw1297100 0.8 99735
02:00−7wnw2696100 0.5 996223
05:00−10w3796100 0.8 996221
08:00−12wsw279798 0.1 996191
11:00−10wsw369398 0.1 996313
14:00−6sw4789100 0.3 995596
17:00−5ssw4791100 0.4 994644
20:00−7s3894100 0.1 993341
5 march, fri
fri523:00−7se3695100 0.3 991191
02:00−8se229699 0.1 99132
05:00−9w1197100 0.4 99423
08:00−9w239793 0.3 99660
11:00−7wnw249493 0.5 998318
14:00−5w2389100 0.1 999492
17:00−5wnw2387100 0.1 1000470
20:00−11nnw129382 0.0 100121
6 march, sat
sat623:00−12nw259784 0.1 1003118
02:00−16wnw239795 0.0 100554
05:00−19w239987 0.1 100750
08:00−19w269887 0.1 1009153
11:00−15w359392 0.1 1010329
14:00−11w358584 0.0 1009503
17:00−10sw248567 0.0 1008601
20:00−14ssw239575 0.0 100837
7 march, sun
sun723:00−14ssw279684 0.1 1008185
02:00−14wsw3796100 0.1 1007240
05:00−17wnw2498100 0.3 100891
08:00−21w239897 0.1 100831
11:00−18wsw239260 0.1 1009250
14:00−13sw358339 0.0 1009664
17:00−12sw468570 0.1 1009891
20:00−16ssw2394100 0.1 100941